Location: Lauzeral
(44.6396°N, 2.1413°E)
Time: 06:01:19
(UTC+00:00)

Daily predictions for brighter satellites

Satellite Brightness Start Highest point End
(mag) Time Altitude Azimuth Time Altitude Azimuth Time Altitude Azimuth
SL-16 R/B 3.2 19:10:50 10° SSE 19:15:21 25° ESE 19:19:53 10° NE
Cosmos 1378 Rocket 4.3 19:12:12 10° N 19:16:13 34° ENE 19:20:10 10° SE
Okean O Rocket 3.6 19:16:58 10° E 19:19:05 13° ENE 19:21:11 10° NNE
CZ-4 R/B 1.6 19:20:15 10° SE 19:23:48 44° ENE 19:27:19 10° N
SPOT 5 2.6 19:22:55 10° SSE 19:27:27 80° ENE 19:31:49 10° N
NOSS 3-4 (A) 3.9 19:23:13 10° SW 19:28:24 57° NW 19:34:08 10° NNE
NOSS 3-4 (C) 3.9 19:23:44 10° SW 19:28:57 58° NW 19:34:42 10° NNE
Cosmos 1656 Rocket 4.0 19:26:50 10° NNW 19:32:09 49° ENE 19:37:23 11° SE
Cosmos 1025 Rocket 4.0 19:29:11 10° NNE 19:32:56 29° ENE 19:36:27 11° SE
Helios 1A Rocket 2.6 19:30:59 10° NNE 19:34:05 43° E 19:37:08 10° S
Cosmos 1733 Rocket 3.0 19:30:57 10° S 19:35:18 75° E 19:39:43 10° NNE
CZ-4B R/B 3.7 19:31:38 10° SSE 19:35:21 75° ENE 19:39:15 10° N
PAYLOAD B 4.5 19:30:12 10° SE 19:35:29 51° ENE 19:40:48 10° N
Terra 2.4 19:32:24 10° SE 19:36:44 39° ENE 19:41:06 10° N
Cosmos 2242 Rocket 3.5 19:32:44 10° N 19:37:12 75° E 19:41:34 10° SSE
SJ-6B 4.3 19:34:00 10° SSW 19:37:20 34° W 19:40:40 10° NNW
BREEZE-M DEB (TANK) 2.9 19:35:57 10° WNW 19:38:25 44° NNE 19:43:24 10° E
IRAS Rocket 4.2 19:34:25 10° SSE 19:39:54 85° ENE 19:45:24 10° NNW
Gblst 52 Del rocket 4.4 19:35:24 10° WSW 19:41:15 89° SE 19:47:56 10° ENE
Resurs 01 Rocket 4.0 19:37:51 10° SSW 19:41:21 23° W 19:44:53 10° NW
Cosmos 1821 Rocket 4.0 19:35:37 10° S 19:41:51 75° E 19:48:13 10° NNE
Cosmos 2237 Rocket 2.9 19:37:23 10° SW 19:42:59 59° WNW 19:48:38 10° NNE
Cosmos 2218 Rocket 4.3 19:41:48 10° SSW 19:47:54 73° W 19:54:06 10° N
Cosmos 2150 Rocket 4.5 19:43:45 10° SSE 19:48:25 37° ESE 19:53:10 10° NE
CSL-04 Rocket 4.0 19:43:03 10° S 19:48:35 74° WSW 19:54:09 10° NNW
Meteor 2-15 Rocket 4.4 19:45:12 10° S 19:51:16 80° E 19:57:23 10° N
BREEZE-M DEB (TANK) 3.6 19:49:57 10° WNW 19:52:08 34° N 19:55:52 10° ENE
Cosmos 1346 Rocket 2.9 19:49:16 10° N 19:52:45 45° ENE 19:55:10 18° SE
SL-4 R/B 3.0 19:53:39 10° S 19:56:39 22° SE 19:57:34 20° ESE
Cosmos 1400 Rocket 2.9 19:53:17 10° SSW 19:56:52 66° WNW 20:00:28 10° N
BREEZE-M DEB (TANK) 3.9 19:53:22 10° SSW 19:57:06 40° ESE 20:08:00 10° NE
Cosmos 1812 1.4 19:56:45 14° SSW 19:58:01 50° W 19:59:39 10° N
Cosmos 1602 3.8 19:57:54 10° NNE 19:59:39 22° ENE 19:59:39 22° ENE
Meteor 1-31 Rocket 3.2 19:56:33 10° S 19:59:59 54° W 20:03:28 10° NNW
Cosmos 1943 Rocket 4.3 19:57:28 10° NW 20:01:57 25° WSW 20:06:23 10° SSW
ASTEX 1 4.0 19:59:48 18° SE 20:03:02 39° ENE 20:07:36 10° N
Gbstr 26 Del rocket 4.1 19:59:03 10° SSW 20:03:38 28° SE 20:06:31 16° E
USA 59 Rocket 0.4 20:00:30 10° NW 20:04:01 53° SW 20:07:46 15° SSE
Feng Yun 1-1 Rocket 4.2 20:00:30 10° SSE 20:06:00 83° WSW 20:11:27 10° NNW
Cosmos 1869 4.0 20:06:01 25° ESE 20:06:47 28° E 20:09:52 10° NNE
Cosmos 2297 4.4 20:01:53 10° NNW 20:07:19 41° ENE 20:10:44 21° ESE
Cosmos 1315 Rocket 4.4 20:08:55 16° E 20:08:55 16° E 20:10:51 10° NE
ADEOS 3.5 20:06:32 14° SSE 20:11:01 77° ENE 20:16:15 10° NNW
Cosmos 2369 Rocket 2.6 20:06:19 10° NNW 20:11:45 48° ENE 20:14:59 23° ESE
USA 186 2.7 20:14:08 21° NE 20:14:08 21° NE 20:15:32 10° NNE
CBERS 1 LM4 rocket 4.3 20:10:01 13° SSE 20:14:17 83° WSW 20:19:07 10° NNW
SL-08 R/B 3.3 20:10:33 10° NNE 20:15:26 64° ESE 20:20:17 10° S
MOS 1 4.4 20:10:33 10° S 20:16:11 78° WSW 20:21:53 10° NNW
Lacrosse 5 rocket 3.7 20:16:16 10° N 20:16:46 10° N 20:17:16 10° NNE
Cosmos 2285 Rocket 4.0 20:13:01 10° S 20:19:18 66° ESE 20:25:35 10° NNE
Cosmos 2221 Rocket 3.6 20:15:52 10° N 20:20:16 64° E 20:22:40 26° SSE
YAOGAN 11 4.3 20:16:32 10° NNE 20:20:42 47° E 20:23:06 23° SSE
USA 234 3.2 20:14:13 10° NE 20:20:47 73° SE 20:27:19 10° SW
SKYMED 3 4.3 20:19:29 10° NNE 20:23:23 84° WNW 20:27:16 10° SSW
Cosmos 405 Rocket 3.6 20:22:26 10° NNE 20:24:26 23° ENE 20:24:26 23° ENE
Cosmos 1943 3.8 20:23:23 22° SSE 20:26:13 35° ESE 20:31:19 10° NE
Molniya-1 3.0 20:24:53 10° SW 20:27:26 87° NW 20:32:27 10° NE
CZ-4B R/B 3.9 20:27:35 23° ENE 20:27:37 24° ENE 20:30:23 10° NNE
CZ-4B R/B 3.4 20:23:42 13° S 20:28:39 73° WSW 20:34:20 10° NNW
SL-8 R/B 3.8 20:27:02 10° WSW 20:31:45 72° NNW 20:36:05 12° ENE
SL-08 R/B 4.4 20:27:39 10° N 20:33:54 75° E 20:38:00 23° SSE
OAO 2 Rocket 4.4 20:29:41 10° WSW 20:33:58 27° S 20:34:49 26° SSE
Cosmos 1975 Rocket 4.0 20:31:28 10° N 20:35:24 31° ENE 20:35:59 29° E
ERS-1 Rocket 3.8 20:33:53 11° S 20:38:30 48° W 20:43:21 10° NNW
Cosmos 2263 4.3 20:37:19 10° NNW 20:42:57 64° ENE 20:45:14 36° SE
CZ-2C R/B 4.3 20:44:39 16° NE 20:44:39 16° NE 20:45:42 10° NNE
Cosmos 2292 Rocket 4.1 20:41:26 10° NNW 20:45:22 45° W 20:47:05 24° SSW
Okean-O 2.5 20:44:32 37° SSE 20:46:13 88° WSW 20:50:38 10° NNW
Cosmos 2298 Rocket 4.2 20:42:59 10° SSW 20:48:16 73° WNW 20:53:37 10° NNE
Cosmos 1908 Rocket 4.0 20:45:39 12° SSW 20:49:38 59° W 20:53:54 10° N
Cosmos 44 4.4 20:44:56 10° SW 20:49:50 49° NW 20:55:01 10° NNE
Okean O Rocket 1.7 20:53:05 37° S 20:54:42 69° WSW 20:59:02 10° NNW
CZ-4B R/B 3.6 20:55:25 45° ESE 20:56:21 52° ENE 21:00:58 10° N
CZ-4 R/B 4.0 20:56:09 10° WSW 20:58:02 13° W 20:59:56 10° WNW
Ariane Rocket 3.3 20:57:13 42° ESE 20:58:13 48° ENE 21:03:04 10° N
SL-16 R/B 3.0 20:53:34 10° SW 20:59:04 52° WNW 21:04:38 10° NNE
Cosmos 1782 Rocket 3.4 20:58:38 48° S 20:59:48 88° E 21:04:08 10° N
Cosmos 1934 Rocket 4.1 20:54:46 12° SSW 21:00:43 77° W 21:06:56 10° N
Geosat 4.2 20:56:46 10° NNE 21:01:46 70° WNW 21:06:43 10° SW
Spot 2 Rocket 3.9 21:03:20 30° SSW 21:05:41 57° W 21:10:38 10° NNW
USA 245 3.8 21:05:18 53° SSE 21:06:30 83° ENE 21:12:01 10° NNW
Cosmos 1269 Rocket 4.0 21:04:01 10° NNW 21:09:18 69° ENE 21:10:20 54° SE
ATLAS 5 CENTAUR R/B 3.4 21:06:56 10° N 21:10:06 21° NE 21:11:03 20° ENE
Cosmos 1140 Rocket 3.3 21:06:42 10° NNW 21:11:51 78° ENE 21:12:46 60° SE
Terra 3.8 21:10:46 11° SW 21:14:22 24° W 21:18:10 10° NW
NOSS 3-1 (C) 4.1 21:12:12 10° NW 21:19:26 77° SW 21:23:02 39° SSE
Cosmos 1862 3.9 21:20:18 10° N 21:22:56 46° N 21:22:56 46° N
Cosmos 1447 Rocket 4.4 21:20:09 10° N 21:26:24 72° E 21:27:42 55° SE
Cosmos 2058 3.3 21:24:23 10° N 21:27:31 55° N 21:27:31 55° N
Cosmos 407 Rocket 3.7 21:23:46 10° NNW 21:28:47 53° ENE 21:28:58 52° ENE
Cosmos 371 Rocket 3.8 21:28:48 10° N 21:33:16 45° ENE 21:33:16 45° ENE
SL-4 R/B 3.8 21:29:53 10° WSW 21:31:14 21° WSW 21:31:14 21° WSW
COSMOS 2455 2.8 21:34:28 10° NNW 21:40:29 69° NE 21:41:17 61° E
SJ 16-02 2.6 21:37:30 10° N 21:40:32 31° NE 21:40:32 31° NE
Cosmos 2251 Rocket 4.4 21:38:27 10° N 21:43:22 36° ENE 21:43:27 36° ENE
Cosmos 1315 Rocket 4.1 21:43:33 33° W 21:43:41 33° WNW 21:47:08 10° N
SPOT 3 Rocket 4.2 21:48:49 43° SW 21:49:39 47° W 21:54:39 10° NNW
Gbstr 26 Del rocket 3.8 21:44:51 10° WSW 21:48:40 49° W 21:48:40 49° W
Cosmos 1605 Rocket 4.4 21:47:33 31° SW 21:50:20 56° WNW 21:56:23 10° N
Lacrosse 5 rocket 3.4 21:51:31 10° NNW 21:52:47 19° NNW 21:52:47 19° NNW
Cosmos 2369 Rocket 3.6 21:50:52 10° NW 21:55:26 26° WSW 21:56:46 24° SW
SeaSat 1 3.9 21:56:42 26° NE 21:56:57 26° NE 22:00:58 10° N
Cosmos 2173 Rocket 3.9 22:03:21 66° E 22:03:21 66° E 22:09:14 10° NNE
USA 234 4.2 21:57:24 10° NE 22:03:35 46° NNW 22:09:45 10° W
Cosmos 1697 Rocket 4.4 22:00:10 10° N 22:04:22 21° NE 22:05:24 20° ENE
Helios 1B rocket 4.5 22:09:10 19° N 22:09:10 19° N 22:10:22 10° N
Cosmos 921 Rocket 4.2 22:03:22 10° NNW 22:06:41 37° WNW 22:06:41 37° WNW
Cosmos 1603 3.6 22:07:59 80° W 22:08:06 81° WNW 22:13:50 10° NNE
Cosmos 1943 4.4 22:04:58 10° WSW 22:10:09 39° NW 22:15:27 10° NNE
SL-8 R/B 4.4 22:09:47 10° WNW 22:13:50 50° NNW 22:13:50 50° NNW
Meteor 2-3 Rocket 3.8 22:08:58 10° N 22:14:03 65° NE 22:14:03 65° NE
NOSS 3-1 (A) 4.1 22:11:56 10° NW 22:19:15 71° WSW 22:20:42 60° S
Okean 2 Rocket 4.4 22:24:29 36° N 22:24:29 36° N 22:27:09 10° N
Cosmos 1980 Rocket 4.4 22:21:22 10° N 22:24:43 16° NE 22:26:39 13° ENE
Cosmos 2100 Rocket 3.9 22:26:44 80° W 22:26:50 80° W 22:33:04 10° N
Cosmos 1190 Rocket 4.4 22:23:06 10° NNW 22:27:28 59° N 22:27:28 59° N
Tsikada Rocket 4.5 22:26:32 10° N 22:32:10 47° ENE 22:32:10 47° ENE
Cosmos 2360 4.5 22:37:13 10° NNW 22:42:06 66° NNW 22:42:06 66° NNW
Cosmos 1656 4.1 22:39:57 10° NNW 22:44:20 58° NW 22:44:20 58° NW
ATLAS 3B R/B 4.0 22:45:06 10° NNW 22:52:18 38° NE 22:55:41 26° E
ATLAS 5 CENTAUR R/B 3.3 22:48:06 10° NW 22:50:10 29° NW 22:50:10 29° NW
Cosmos 1833 Rocket 3.7 23:01:16 38° NE 23:01:16 38° NE 23:04:45 10° NNE
ALOS 2 4.4 23:03:31 30° N 23:03:31 30° N 23:05:50 10° N
ARIANE 5 R/B 4.4 23:10:04 30° N 23:10:04 30° N 23:12:18 10° NNW
Cosmos 1725 Rocket 4.3 23:08:52 62° WNW 23:08:52 62° WNW 23:14:53 10° N
DEBRIS 4.5 23:14:39 49° WNW 23:16:00 65° N 23:30:54 10° ENE
Cosmos 2233 Rocket 4.2 23:18:32 69° NNW 23:18:32 69° NNW 23:24:09 10° N
USA 229 DEB 4.3 23:11:31 10° NNW 23:18:55 60° NE 23:20:33 51° E
USA 229 4.3 23:11:34 10° NNW 23:18:58 59° NE 23:20:40 50° E
SJ 16-02 3.9 23:16:02 10° NW 23:17:02 15° WNW 23:17:02 15° WNW
Cosmos 2056 Rocket 4.4 23:20:45 46° NNW 23:20:45 46° NNW 23:25:06 10° NNE
ATLAS 2AS CENTAUR R/B 2.7 23:25:29 77° NNE 23:25:29 77° NNE 23:31:48 10° NE
CZ-2C R/B 3.7 23:29:07 39° NE 23:29:07 39° NE 23:33:21 10° N
SeaSat 1 4.0 23:36:18 29° NW 23:36:18 29° NW 23:38:50 10° NW
ACS3 Solar Sail 3.6 23:40:57 10° NE 23:44:42 20° E 23:44:42 20° E
Cosmos 1697 Rocket 3.6 23:43:18 10° NNW 23:47:06 44° NW 23:47:06 44° NW
Cosmos 1464 Rocket 4.5 23:54:07 52° NE 23:54:07 52° NE 23:59:05 10° NNE
